COSMOS 2361 1 25590U 98076A 10073.51400008 .00000041 00000-0 28000-4 0 2914 2 25590 82.9292 275.3557 0032988 54.2915 306.1310 13.72715897562114 COSMOS 2378 1 26818U 01023A 10073.79433376 .00000034 00000-0 20602-4 0 2785 2 26818 82.9272 301.5375 0033955 20.1725 340.0770 13.73742097439485 COSMOS 2389 1 27436U 02026A 10073.06584035 .00000042 00000-0 28064-4 0 153 2 27436 82.9450 243.0017 0044963 269.2015 90.3986 13.74739954391055 COSMOS 2398 1 27818U 03023A 10073.50413359 .00000034 00000-0 21551-4 0 8652 2 27818 82.9495 189.7881 0029883 242.9025 116.9086 13.71962738339318 COSMOS 2407 1 28380U 04028A 10072.80934000 .00000011 00000-0 -42882-5 0 6842 2 28380 82.9623 151.3330 0037945 299.2463 60.4896 13.75850655283261 COSMOS 2414 1 28521U 05002A 10073.91213762 .00000038 00000-0 19356-4 0 6128 2 28521 82.9474 212.5371 0039849 336.2612 23.6712 13.87355725260635 COSMOS 2429 1 32052U 07038A 10073.58210528 .00000092 00000-0 80961-4 0 7922 2 32052 82.9753 260.8141 0036985 253.1409 106.5680 13.74700930125711 COSMOS 2454 1 35635U 09039A 10073.07429830 .00000138 00000-0 10000-3 0 2266 2 35635 82.9547 207.8731 0019019 330.7790 29.2300 13.89389590 32754